Вернуться в каталог

CZ-3C DEB

VEB

АктивенHEO
NORAD 38095·DEBRIS·🇨🇳 China

Запущен Feb 24, 2012 с Xichang Satellite Launch Center

Loading…

Ближайшие Пролёты (ближайшие 24 часа)

TLE

СвежийSource: Space-Track

Эпоха: Sep 14, 2026, 14:12 UTC

1 38095U 12008C   26257.59235234  .00013486  00000-0  15495-2 0  9999
2 38095  21.0021 310.5700 6494713 175.2564 196.8945  3.34879660142907

Отслеживайте CZ-3C DEB в реальном времени с AllMySat

Download on the App Store